Location: Alsip
(41.6689°N, 87.7387°W)
Time: 00:35:31
(UTC+00:00)

BREEZE M DEB (TANK) - Visible Passes

Search period start: 24 October 2020 00:00
Search period end: 03 November 2020 00:00
Orbit: 291 x 14526 km, 49.6° (Epoch: 22 October)

Date Brightness Start Highest point End Pass type
(mag) Time Alt. Az. Time Alt. Az. Time Alt. Az.
24 Oct 9.2 04:50:59 10° S 06:50:04 63° ESE 07:38:16 10° NE visible
24 Oct 7.7 10:35:36 17° W 12:06:19 72° N 12:21:42 10° E visible
25 Oct 9.4 03:20:29 10° SSE 05:01:09 41° ESE 05:52:28 10° NE visible
25 Oct 8.3 08:00:36 10° SW 10:14:08 80° NNW 10:39:40 10° ENE visible
26 Oct 9.6 02:57:19 19° E 03:19:24 21° E 03:59:37 10° ENE visible
26 Oct 8.9 06:07:00 10° SSW 08:17:33 83° SE 08:56:57 10° ENE visible
26 Oct 7.0 12:16:38 10° W 13:28:28 77° NNE 13:38:32 10° ESE visible
27 Oct 9.2 04:24:52 10° S 06:22:26 62° ESE 07:13:06 10° NE visible
27 Oct 7.8 10:20:21 23° W 11:40:31 73° N 11:57:03 10° E visible
28 Oct 9.4 02:55:10 10° SSE 04:34:07 40° E 05:26:49 10° NE visible
28 Oct 8.4 07:32:15 10° SW 09:47:16 81° NNW 10:14:49 10° ENE visible
29 Oct 9.6 02:40:46 19° E 02:53:07 20° E 03:32:44 10° ENE visible
29 Oct 8.9 05:40:03 10° SSW 07:49:37 82° SE 08:31:51 10° ENE visible
29 Oct 7.1 11:44:10 10° W 13:03:03 77° NNE 13:13:50 10° ESE visible
30 Oct 9.2 03:58:42 10° S 05:54:32 61° ESE 06:47:41 10° NE visible
30 Oct 7.9 10:02:56 28° W 11:14:24 73° N 11:32:11 10° E visible
31 Oct 9.3 02:29:50 10° SE 04:06:54 39° E 05:00:52 10° NE visible
31 Oct 8.5 07:03:57 10° SW 09:19:56 82° NNW 09:49:45 10° ENE visible
01 Nov 9.6 02:22:23 18° E 02:26:40 19° E 03:05:21 10° ENE visible
01 Nov 9.0 05:13:04 10° SSW 07:21:16 81° SE 08:06:31 10° ENE visible
01 Nov 7.2 11:20:03 13° W 12:37:23 77° NNE 12:48:56 10° ESE visible
02 Nov 9.2 03:32:27 10° S 05:26:22 60° ESE 06:21:59 10° NE visible
02 Nov 7.9 09:43:54 34° W 10:47:55 74° N 11:07:06 10° E visible
